Weather Roundup
Issued by NWS Chicago, IL

Home | Current Version | Previous Version | Graphics & Text | Print | Product List | Glossary On
Versions: 1 2 3 4 5 6 7 8 9 10 11 12 13 14 15 16 17 18 19 20 21 22 23 24 25 26 27 28 29 30 31 32 33 34 35 36 37 38 39 40 41 42 43 44 45 46 47 48 49 50
667
NZUS59 KLOT 230204
HRRLOT

CHICAGO AREA WEATHER ROUNDUP
NATIONAL WEATHER SERVICE CHICAGO/ROMEOVILLE IL
900 PM CDT SUN OCT 22 2017

NOTE: "FAIR" INDICATES FEW OR NO CLOUDS BELOW 12,000 FEET WITH NO
SIGNIFICANT WEATHER AND/OR OBSTRUCTIONS TO VISIBILITY.

* THESE STATIONS ARE NOT UNDER NWS QUALITY CONTROL. THEY ALSO MAY NOT
  REPORT WEATHER SUCH AS PRECIPITATION OR FOG.

ILZ005-006-012>014-019>023-230300-
NORTHEAST ILLINOIS

CITY           SKY/WX    TMP DP  RH WIND       PRES   REMARKS
OHARE          LGT RAIN  53  50  89 NE7       30.03R
MIDWAY         RAIN      54  53  97 NE15      30.02F
AURORA         CLOUDY    52  51  97 N6        30.06R
LANSING*       HVY RAIN  53  53 100 N7        30.03S
JOLIET*        HVY RAIN  53  52  97 NE7       30.04R
WAUKEGAN       LGT RAIN  51  50  96 NW3       30.04R
DUPAGE AIRPORT CLOUDY    51  51 100 N6        30.05R
WHEELING       CLOUDY    52  51  97 N6        30.05R
KANKAKEE*      RAIN      52  51  98 NE10      30.03S
MORRIS*        LGT RAIN  52  50  95 CALM      30.04R
NORTHERLY ISL    N/A     53  51  93 N10         N/A
$$

WIZ051-052-058>065-066-070>072-230300-
SOUTHEAST WISCONSIN

CITY           SKY/WX    TMP DP  RH WIND       PRES   REMARKS
MILWAUKEE      CLOUDY    52  50  93 NW8       30.05R
KENOSHA*       CLOUDY    51  48  89 NW6       30.05R
RACINE*        LGT RAIN  51  50  96 NW6       30.06R
WAUKESHA       CLOUDY    48  48 100 W3        30.06S
WEST BEND      CLOUDY    48  48 100 W3        30.04F
$$

INZ001>003-010>013-019-020-230300-
NORTHWEST INDIANA

CITY           SKY/WX    TMP DP  RH WIND       PRES   REMARKS
GARY*          RAIN      55  54  94 N12G23    30.04F
MICHIGAN CITY* NOT AVBL
RENSSELAER*    NOT AVBL
VALPARAISO     CLOUDY    56  54  93 N7        30.02S
$$

LMZ740>746-230300-
SOUTHERN LAKE MICHIGAN

STATION/POSITION TIME  SKY/WX   TEMP WIND        PRES    VSBY
                                AIR  DIR/SP/G
                 (UTC)          (F)  (DEG/KT/KT) (MB)    (MI)
HARRISON CRIB    0140            54   20/ 14/ 17   N/A
BURNHAM HARBOR   0200            53  360/ 10/ 15   N/A
CALUMET HARBOR   0130            53  350/ 12/ 17 1016.1F
BURNS HARBOR     0140            55   10/ 13/ 16 1016.9F
MICHIGAN CITY    0140            55  360/ 19/ 20   N/A
$$

ABBREVIATIONS USED IN REMARKS
   TC - TEMPERATURE IN CELSIUS
  WCI - WIND CHILL INDEX
   HX - HEAT INDEX
  VSB - VISIBILITY
$$




USA.gov is the U.S. government's official web portal to all federal, state and local government web resources and services.